Regional Weather Roundup
Issued by NWS Sioux Falls, SD

Home | Current Version | Previous Version | Text Only | Print | Product List | Glossary On
Versions: 1 2 3 4 5 6 7 8 9 10 11 12 13 14 15 16 17 18 19 20 21 22 23 24 25 26 27 28 29 30 31 32 33 34 35 36 37 38 39 40 41 42 43 44 45 46 47 48 49 50
000
ASUS43 KFSD 091410
RWRFSD

WEATHER ROUNDUP FOR SE SOUTH DAKOTA/SW MINNESOTA/NW IOWA
NATIONAL WEATHER SERVICE SIOUX FALLS SD
800 AM CST FRI DEC 09 2016

NOTE: "FAIR" INDICATES FEW OR NO CLOUDS BELOW 12,000 FEET WITH NO
SIGNIFICANT WEATHER AND OR OBSTRUCTIONS TO VISIBILITY.


SDZ038>040-050-052>070-091500-
SOUTHEAST SOUTH DAKOTA

CITY           SKY/WX    TMP DP  RH WIND       PRES   REMARKS
BROOKINGS      CLOUDY    -3  -7  82 W5        30.53R WCI -13
CHAMBERLAIN    CLOUDY     4  -1  82 E3        30.53S
HURON          CLOUDY     0  -4  83 N3        30.59S
MADISON        FAIR       0  -2  92 NW6       30.53R WCI -12
MITCHELL       CLOUDY     1  -3  83 CALM      30.60R
SIOUX FALLS    CLOUDY     1  -3  83 W6        30.56R WCI -10
WINNER         CLOUDY     5   0  79 SE10      30.47F WCI -10
YANKTON        CLOUDY     1  -4  78 CALM      30.58S
$$

MNZ071-072-080-081-089-090-097-098-091500-
SOUTHWEST MINNESOTA

CITY           SKY/WX    TMP DP  RH WIND       PRES   REMARKS
FAIRMONT       CLEAR      5   1  83 NW9       30.57R WCI  -9
JACKSON        CLOUDY     3   0  85 NW5       30.54R WCI  -6
LUVERNE        PTCLDY     1  -4  78 NW5       30.56R WCI  -8
MARSHALL       CLEAR      0  -5  79 W6        30.58R WCI -12
MONTEVIDEO     CLOUDY     1  -2  85 N7        30.59R WCI -11
PIPESTONE      CLOUDY     0  -4  85 NW3       30.51R
REDWOOD FALLS  CLOUDY     1  -4  79 W7        30.58R WCI -12
TRACY          CLEAR      2  -2  83 W3        30.56R
WINDOM         CLOUDY     1  -2  85 CALM      30.54R
WORTHINGTON    CLOUDY     1  -3  83 W6        30.54R WCI -10
$$

IAZ001>003-012>014-020>022-031-032-NEZ013-014-SDZ071-091500-
NORTHWEST IOWA

CITY           SKY/WX    TMP DP  RH WIND       PRES   REMARKS
CHEROKEE       PTCLDY     3   1  88 CALM      30.58S
DENISON        PTCLDY     5   3  92 CALM      30.58R
ESTHERVILLE    CLEAR      2   0  91 W5        30.55R WCI  -8
LE MARS        CLOUDY     3   0  85 CALM      30.61R
ORANGE CITY    CLOUDY     1   0  92 CALM      30.56R
SHELDON        PTCLDY     1   0  92 W5        30.55R WCI  -8
SIOUX CITY     CLOUDY     5   0  79 CALM      30.62R
SPENCER        CLEAR      1  -3  83 W12       30.56S WCI -16
STORM LAKE     CLOUDY     3   0  85 W6        30.56R WCI  -8
$$

ABBREVIATIONS USED IN REMARKS
   TC - TEMPERATURE IN CELSIUS
  WCI - WIND CHILL INDEX
   HX - HEAT INDEX
  VSB - VISIBILITY





USA.gov is the U.S. government's official web portal to all federal, state and local government web resources and services.